FALCON 9 DEB (52387 NORAD) Tracking and Keplerian Element Data
This shows tracking and keplerian element data for the satellite.
Feedback or suggestion? Click here.
Element | Value |
Catalog | 52387 |
Name | FALCON 9 DEB |
Epoch Orbit | 585 |
Epoch Day | 156.46576731 |
Epoch Year | 2022 |
RAAN | 248.2813 |
Inclination | 53.1912 |
Eccentricity | 0.001111 |
Argument of Perigee | 331.2292 |
Mean Anonmoly | 28.8139 |
Mean Motion | 16.31038114 |
Decay Rate | 0.02996458 |
L1 | 1 52387U 22045BJ 22156.46576731 .02996458 12135-4 56874-3 0 9995 |
L2 | 2 52387 53.1912 248.2813 0011110 331.2292 28.8139 16.31038114 5859 |
Live tracking and technical data element details for FALCON 9 DEB (NORAD 52387). FALCON 9 DEB can be tracked NOW for your location showing map with azimuth and elevation plus other details from your city location.
Track the satellite on the map from your city or location and see movement details for azimuth, elevation, latitude, longitude, range, height, and movement on the map or in text.
IsCatalogInMostPopularTable: catalog: 52387, numindb: 7
Update: records affected: 1
GetName: 52387 FALCON 9 DEB
Hit Count: updated at: Mon, 27 Jun 2022 06:29:58 GMT